RYR5GF LIRZ-LICC

Flight info

Callsign RYR5GF
Flight time 0h 56m
Altitude 19000
Route GITOD Y106 TIBER/N0437F370 DCT TAGEL DCT VAKOR/N0338F190 Q789 UXUTA
Aircraft B738/M-SDE3FGILRWY/SB1

Departure

Time 2026-04-28 15:04
Airport Perugia San Francesco d'Assisi – Umbria International Airport (LIRZ)

Arrival

Time 2026-04-28 16:01
Airport Catania-Fontanarossa Airport (LICC)
Time Latitude Longitude Altitude Speed Heading
2026-04-28 14:56 43.09459 12.50409 689 ft 0 kts 249°
2026-04-28 15:00 43.09464 12.50397 685 ft 2 kts 322°
2026-04-28 15:00 43.09497 12.50419 666 ft 11 kts 33°
2026-04-28 15:00 43.09568 12.50542 667 ft 22 kts 65°
2026-04-28 15:00 43.09643 12.50773 668 ft 29 kts 65°
2026-04-28 15:01 43.09723 12.51015 668 ft 27 kts 66°
2026-04-28 15:01 43.09842 12.51179 666 ft 25 kts 13°
2026-04-28 15:01 43.10009 12.51237 668 ft 25 kts 14°
2026-04-28 15:01 43.10123 12.51277 668 ft 26 kts 14°
2026-04-28 15:02 43.10216 12.51308 668 ft 24 kts 14°
2026-04-28 15:02 43.10372 12.51364 668 ft 24 kts 14°
2026-04-28 15:02 43.10543 12.51423 668 ft 26 kts 14°
2026-04-28 15:02 43.10716 12.51484 668 ft 25 kts 14°
2026-04-28 15:03 43.10777 12.51601 668 ft 14 kts 103°
2026-04-28 15:03 43.10731 12.51716 668 ft 15 kts 171°
2026-04-28 15:03 43.10669 12.51700 668 ft 0 kts 193°
2026-04-28 15:04 43.10657 12.51696 668 ft 12 kts 194°
2026-04-28 15:04 43.10295 12.51568 671 ft 96 kts 194°
2026-04-28 15:04 43.09402 12.51252 698 ft 163 kts 195°
2026-04-28 15:04 43.08263 12.50840 1419 ft 176 kts 197°
2026-04-28 15:05 43.07062 12.50418 2486 ft 176 kts 197°
2026-04-28 15:05 43.05887 12.49974 3359 ft 183 kts 196°
2026-04-28 15:05 43.04611 12.49425 3886 ft 200 kts 206°
2026-04-28 15:05 43.03360 12.48532 4467 ft 207 kts 211°
2026-04-28 15:06 43.02055 12.47530 4894 ft 222 kts 210°
2026-04-28 15:06 43.00702 12.46491 5555 ft 226 kts 210°
2026-04-28 15:06 42.99315 12.45429 6245 ft 233 kts 209°
2026-04-28 15:06 42.97859 12.44326 6814 ft 247 kts 209°
2026-04-28 15:07 42.96282 12.43141 7238 ft 268 kts 208°
2026-04-28 15:07 42.94629 12.41902 8031 ft 273 kts 208°
2026-04-28 15:07 42.92965 12.40657 8966 ft 275 kts 208°
2026-04-28 15:07 42.91267 12.39389 9764 ft 280 kts 208°
2026-04-28 15:08 42.89551 12.38114 10595 ft 281 kts 208°
2026-04-28 15:08 42.87805 12.36830 11221 ft 292 kts 208°
2026-04-28 15:08 42.85946 12.35463 11427 ft 317 kts 208°
2026-04-28 15:08 42.83932 12.33982 11602 ft 341 kts 208°
2026-04-28 15:09 42.81739 12.32493 11781 ft 362 kts 199°
2026-04-28 15:09 42.79217 12.31978 12229 ft 374 kts 178°
2026-04-28 15:09 42.76645 12.32698 12841 ft 383 kts 162°
2026-04-28 15:09 42.74947 12.33545 13218 ft 388 kts 161°
2026-04-28 15:10 42.71585 12.35348 13943 ft 396 kts 160°
2026-04-28 15:10 42.69010 12.36757 14524 ft 401 kts 160°
2026-04-28 15:10 42.66411 12.38171 15139 ft 404 kts 160°
2026-04-28 15:10 42.63790 12.39578 15756 ft 407 kts 160°
2026-04-28 15:11 42.61137 12.40986 16329 ft 412 kts 160°
2026-04-28 15:11 42.58461 12.42398 16900 ft 415 kts 161°
2026-04-28 15:11 42.55753 12.43820 17471 ft 419 kts 161°
2026-04-28 15:11 42.53020 12.45251 18019 ft 423 kts 161°
2026-04-28 15:12 42.50259 12.46693 18538 ft 427 kts 161°
2026-04-28 15:12 42.47478 12.48146 19026 ft 430 kts 161°
2026-04-28 15:12 42.44675 12.49610 19538 ft 433 kts 161°
2026-04-28 15:12 42.41854 12.51086 20035 ft 436 kts 161°
2026-04-28 15:13 42.39015 12.52569 20512 ft 439 kts 160°
2026-04-28 15:13 42.36156 12.54058 20973 ft 442 kts 160°
2026-04-28 15:13 42.33272 12.55554 21424 ft 446 kts 161°
2026-04-28 15:13 42.30367 12.57059 21859 ft 449 kts 160°
2026-04-28 15:14 42.27441 12.58576 22297 ft 452 kts 160°
2026-04-28 15:14 42.24488 12.60078 22722 ft 454 kts 163°
2026-04-28 15:14 42.21457 12.61342 23137 ft 457 kts 165°
2026-04-28 15:14 42.18388 12.62497 23549 ft 460 kts 166°
2026-04-28 15:15 42.15284 12.63620 23894 ft 463 kts 166°
2026-04-28 15:15 42.13225 12.64359 24121 ft 464 kts 166°
2026-04-28 15:15 42.09035 12.65877 24603 ft 467 kts 166°
2026-04-28 15:15 42.05898 12.67027 24933 ft 469 kts 166°
2026-04-28 15:16 42.02742 12.68198 25282 ft 471 kts 166°
2026-04-28 15:16 41.99576 12.69380 25633 ft 473 kts 166°
2026-04-28 15:16 41.96404 12.70565 25947 ft 475 kts 166°
2026-04-28 15:16 41.93214 12.71757 26256 ft 477 kts 166°
2026-04-28 15:17 41.90009 12.72953 26544 ft 479 kts 166°
2026-04-28 15:17 41.86791 12.74152 26832 ft 481 kts 166°
2026-04-28 15:17 41.83556 12.75352 27094 ft 483 kts 166°
2026-04-28 15:17 41.80309 12.76557 27388 ft 485 kts 166°
2026-04-28 15:18 41.77098 12.77746 27742 ft 485 kts 166°
2026-04-28 15:18 41.73858 12.78946 28203 ft 483 kts 166°
2026-04-28 15:18 41.70620 12.80143 28645 ft 481 kts 166°
2026-04-28 15:18 41.67391 12.81333 29044 ft 481 kts 166°
2026-04-28 15:19 41.64174 12.82520 29428 ft 480 kts 166°
2026-04-28 15:19 41.60949 12.83709 29833 ft 480 kts 166°
2026-04-28 15:19 41.57736 12.84893 30217 ft 479 kts 166°
2026-04-28 15:19 41.54526 12.86075 30562 ft 478 kts 166°
2026-04-28 15:20 41.51316 12.87257 30895 ft 478 kts 166°
2026-04-28 15:20 41.48119 12.88434 31223 ft 477 kts 166°
2026-04-28 15:20 41.44923 12.89611 31546 ft 476 kts 166°
2026-04-28 15:20 41.41729 12.90786 31866 ft 476 kts 166°
2026-04-28 15:21 41.38535 12.91958 32187 ft 476 kts 166°
2026-04-28 15:21 41.35344 12.93128 32484 ft 475 kts 166°
2026-04-28 15:21 41.32156 12.94294 32787 ft 475 kts 166°
2026-04-28 15:21 41.28974 12.95455 33116 ft 474 kts 166°
2026-04-28 15:22 41.26873 12.96222 33327 ft 473 kts 166°
2026-04-28 15:22 41.23700 12.97379 33632 ft 473 kts 166°
2026-04-28 15:22 41.20532 12.98532 33915 ft 472 kts 166°
2026-04-28 15:22 41.17358 12.99687 34178 ft 472 kts 166°
2026-04-28 15:23 41.14197 13.00836 34430 ft 471 kts 167°
2026-04-28 15:23 41.11031 13.01985 34662 ft 471 kts 167°
2026-04-28 15:23 41.07869 13.03132 34895 ft 471 kts 167°
2026-04-28 15:23 41.04712 13.04277 35140 ft 470 kts 167°
2026-04-28 15:24 41.01558 13.05419 35368 ft 470 kts 167°
2026-04-28 15:24 40.98401 13.06560 35588 ft 470 kts 167°
2026-04-28 15:24 40.95247 13.07700 35808 ft 469 kts 167°
2026-04-28 15:24 40.92102 13.08835 36030 ft 469 kts 167°
2026-04-28 15:25 40.88955 13.09970 36241 ft 469 kts 167°
2026-04-28 15:25 40.85803 13.11106 36438 ft 469 kts 168°
2026-04-28 15:25 40.82661 13.12237 36653 ft 468 kts 168°
2026-04-28 15:25 40.79519 13.13366 36868 ft 468 kts 168°
2026-04-28 15:26 40.76378 13.14494 37043 ft 468 kts 168°
2026-04-28 15:26 40.70056 13.16760 37052 ft 474 kts 168°
2026-04-28 15:27 40.63663 13.19048 37058 ft 478 kts 168°
2026-04-28 15:27 40.57233 13.21346 37062 ft 480 kts 168°
2026-04-28 15:28 40.50775 13.23649 37055 ft 482 kts 168°
2026-04-28 15:28 40.44305 13.25952 37050 ft 482 kts 168°
2026-04-28 15:29 40.37837 13.28251 37052 ft 481 kts 168°
2026-04-28 15:29 40.31378 13.30541 37053 ft 481 kts 168°
2026-04-28 15:30 40.25106 13.33674 37072 ft 484 kts 159°
2026-04-28 15:30 40.18979 13.37362 37062 ft 485 kts 159°
2026-04-28 15:31 40.12852 13.41046 37042 ft 485 kts 159°
2026-04-28 15:31 40.06710 13.44676 37052 ft 484 kts 159°
2026-04-28 15:32 40.00555 13.48278 37049 ft 485 kts 160°
2026-04-28 15:32 39.94400 13.51868 37050 ft 485 kts 160°
2026-04-28 15:33 39.88280 13.55433 37050 ft 485 kts 160°
2026-04-28 15:33 39.82120 13.59016 37052 ft 485 kts 160°
2026-04-28 15:34 39.75944 13.62602 37051 ft 486 kts 160°
2026-04-28 15:34 39.69767 13.66182 37051 ft 486 kts 160°
2026-04-28 15:35 39.63581 13.69760 37049 ft 487 kts 160°
2026-04-28 15:35 39.54287 13.75122 37046 ft 488 kts 160°
2026-04-28 15:36 39.48079 13.78695 37046 ft 488 kts 160°
2026-04-28 15:36 39.41865 13.82264 37047 ft 489 kts 160°
2026-04-28 15:37 39.35646 13.85830 37040 ft 488 kts 160°
2026-04-28 15:37 39.29478 13.89361 37037 ft 483 kts 161°
2026-04-28 15:38 39.23352 13.92859 37043 ft 480 kts 161°
2026-04-28 15:38 39.17361 13.96280 36632 ft 464 kts 161°
2026-04-28 15:39 39.14387 13.97970 35838 ft 469 kts 161°
2026-04-28 15:39 39.11380 13.99674 35002 ft 476 kts 160°
2026-04-28 15:39 39.08374 14.01382 34898 ft 463 kts 160°
2026-04-28 15:39 39.05435 14.03053 34861 ft 464 kts 161°
2026-04-28 15:40 38.99451 14.06439 34850 ft 475 kts 161°
2026-04-28 15:40 38.93329 14.09901 34832 ft 485 kts 161°
2026-04-28 15:41 38.87083 14.13430 34580 ft 499 kts 161°
2026-04-28 15:41 38.83894 14.15229 34349 ft 502 kts 161°
2026-04-28 15:41 38.80751 14.17045 34129 ft 502 kts 160°
2026-04-28 15:42 38.74471 14.20841 34039 ft 497 kts 159°
2026-04-28 15:42 38.68214 14.24647 34030 ft 499 kts 159°
2026-04-28 15:43 38.61942 14.28425 34030 ft 496 kts 160°
2026-04-28 15:43 38.55729 14.32147 34029 ft 492 kts 160°
2026-04-28 15:44 38.52621 14.34002 33730 ft 496 kts 160°
2026-04-28 15:44 38.49477 14.35877 33041 ft 497 kts 160°
2026-04-28 15:44 38.46357 14.37740 32337 ft 496 kts 160°
2026-04-28 15:44 38.43224 14.39609 31576 ft 496 kts 159°
2026-04-28 15:45 38.40102 14.41470 30812 ft 497 kts 159°
2026-04-28 15:45 38.36964 14.43338 30011 ft 498 kts 159°
2026-04-28 15:45 38.33830 14.45202 29040 ft 498 kts 159°
2026-04-28 15:45 38.30687 14.47068 28227 ft 496 kts 159°
2026-04-28 15:46 38.27564 14.48919 27297 ft 496 kts 159°
2026-04-28 15:46 38.24434 14.50771 26333 ft 497 kts 159°
2026-04-28 15:46 38.21297 14.52625 25531 ft 495 kts 159°
2026-04-28 15:46 38.18189 14.54464 24843 ft 490 kts 159°
2026-04-28 15:47 38.15117 14.56280 24148 ft 485 kts 159°
2026-04-28 15:47 38.12067 14.58080 23416 ft 482 kts 159°
2026-04-28 15:47 38.09035 14.59868 22616 ft 477 kts 159°
2026-04-28 15:47 38.06041 14.61631 21921 ft 471 kts 158°
2026-04-28 15:48 38.03089 14.63369 21302 ft 464 kts 158°
2026-04-28 15:48 38.00178 14.65080 20689 ft 458 kts 158°
2026-04-28 15:48 37.97307 14.66766 20049 ft 453 kts 158°
2026-04-28 15:48 37.94523 14.68493 19414 ft 450 kts 153°
2026-04-28 15:49 37.91932 14.70686 18801 ft 447 kts 143°
2026-04-28 15:49 37.89516 14.73116 18312 ft 439 kts 143°
2026-04-28 15:49 37.87129 14.75497 18130 ft 423 kts 143°
2026-04-28 15:49 37.84860 14.77753 18007 ft 407 kts 143°
2026-04-28 15:50 37.82678 14.79921 17904 ft 391 kts 144°
2026-04-28 15:50 37.80579 14.82005 17397 ft 389 kts 143°
2026-04-28 15:50 37.78441 14.84119 16754 ft 391 kts 144°
2026-04-28 15:50 37.76164 14.85965 16089 ft 389 kts 160°
2026-04-28 15:51 37.73547 14.86574 15494 ft 383 kts 185°
2026-04-28 15:51 37.70991 14.85817 15016 ft 377 kts 206°
2026-04-28 15:51 37.68777 14.84071 14434 ft 376 kts 216°
2026-04-28 15:51 37.66695 14.82065 13807 ft 376 kts 218°
2026-04-28 15:52 37.64652 14.80005 13183 ft 376 kts 220°
2026-04-28 15:52 37.62788 14.77760 12541 ft 365 kts 227°
2026-04-28 15:52 37.61100 14.75419 11911 ft 356 kts 228°
2026-04-28 15:52 37.59499 14.73094 11282 ft 348 kts 233°
2026-04-28 15:53 37.58481 14.70382 10634 ft 341 kts 256°
2026-04-28 15:53 37.58091 14.67468 10037 ft 334 kts 262°
2026-04-28 15:53 37.57825 14.64580 9410 ft 329 kts 263°
2026-04-28 15:53 37.57547 14.61740 8778 ft 324 kts 256°
2026-04-28 15:54 37.56548 14.59232 8208 ft 323 kts 227°
2026-04-28 15:54 37.54717 14.57643 7726 ft 323 kts 199°
2026-04-28 15:54 37.52502 14.57340 7232 ft 324 kts 171°
2026-04-28 15:54 37.50429 14.58399 6735 ft 325 kts 143°
2026-04-28 15:55 37.48971 14.60552 6261 ft 325 kts 120°
2026-04-28 15:55 37.47968 14.63102 5794 ft 325 kts 115°
2026-04-28 15:55 37.47050 14.65685 5400 ft 321 kts 114°
2026-04-28 15:55 37.46165 14.68222 5055 ft 310 kts 114°
2026-04-28 15:56 37.45404 14.70701 4760 ft 299 kts 110°
2026-04-28 15:56 37.44783 14.73168 4516 ft 293 kts 105°
2026-04-28 15:56 37.44301 14.75627 4345 ft 285 kts 100°
2026-04-28 15:56 37.44248 14.78077 4226 ft 277 kts 85°
2026-04-28 15:57 37.44473 14.80462 3881 ft 272 kts 83°
2026-04-28 15:57 37.44704 14.82797 3535 ft 266 kts 84°
2026-04-28 15:57 37.44897 14.85076 3222 ft 257 kts 84°
2026-04-28 15:57 37.45072 14.87238 2872 ft 238 kts 84°
2026-04-28 15:58 37.45231 14.89197 2558 ft 220 kts 84°
2026-04-28 15:58 37.45385 14.91071 2277 ft 206 kts 84°
2026-04-28 15:58 37.45527 14.92802 2014 ft 192 kts 84°
2026-04-28 15:58 37.45661 14.94409 1763 ft 179 kts 84°
2026-04-28 15:59 37.45783 14.95899 1539 ft 163 kts 84°
2026-04-28 15:59 37.45859 14.96808 1429 ft 152 kts 85°
2026-04-28 15:59 37.46012 14.98583 1207 ft 154 kts 84°
2026-04-28 15:59 37.46125 14.99924 1021 ft 154 kts 85°
2026-04-28 16:00 37.46236 15.01257 783 ft 151 kts 84°
2026-04-28 16:00 37.46350 15.02555 537 ft 148 kts 84°
2026-04-28 16:00 37.46453 15.03826 311 ft 145 kts 85°
2026-04-28 16:00 37.46554 15.05079 122 ft 143 kts 84°
2026-04-28 16:01 37.46657 15.06291 36 ft 130 kts 84°
2026-04-28 16:01 37.46724 15.07174 34 ft 71 kts 84°
2026-04-28 16:01 37.46762 15.07537 35 ft 24 kts 72°
2026-04-28 16:01 37.46828 15.07724 33 ft 23 kts 57°
2026-04-28 16:02 37.46928 15.07785 30 ft 18 kts 310°
2026-04-28 16:02 37.46928 15.07633 32 ft 17 kts 264°
2026-04-28 16:02 37.46915 15.07483 31 ft 17 kts 263°
2026-04-28 16:02 37.46903 15.07339 31 ft 16 kts 264°
2026-04-28 16:03 37.46891 15.07199 31 ft 17 kts 264°
2026-04-28 16:03 37.46878 15.07041 31 ft 19 kts 264°
2026-04-28 16:03 37.46863 15.06866 30 ft 20 kts 264°
2026-04-28 16:03 37.46849 15.06695 30 ft 19 kts 264°
2026-04-28 16:04 37.46835 15.06529 31 ft 19 kts 264°
2026-04-28 16:04 37.46822 15.06369 29 ft 18 kts 264°
2026-04-28 16:04 37.46811 15.06240 31 ft 10 kts 264°
2026-04-28 16:04 37.46822 15.06202 31 ft 6 kts 328°
2026-04-28 16:05 37.46878 15.06192 30 ft 3 kts 354°
2026-04-28 16:05 37.46886 15.06191 31 ft 0 kts 354°